Location: Chrome
(40.5765°N, 74.2163°W)
Time: 14:15:03
(UTC+00:00)

Cosmos 1844 - Pass Details

Date: 06 December 2019
Orbit: 824 x 867 km, 70.9° (Epoch: 19 January)

Event Time Altitude Azimuth Distance (km) Brightness Sun altitude
Rises 22:00:45 0° 336° (NNW) 3,426 6.9 -6.1°
Reaches altitude 10° 22:03:14 10° 337° (NNW) 2,480 6.1 -6.5°
Maximum altitude 22:08:56 88° 68° (ENE) 847 3.7 -7.5°
Drops below altitude 10° 22:14:33 10° 157° (SSE) 2,436 6.1 -8.5°
Sets 22:16:57 0° 158° (SSE) 3,360 6.8 -8.9°
